Showing default

LASARSAT, 62391

Orbit data source: Space-Track

LASARSAT, 62391 is a Czech payload satellite in LEO that was launched on Sat, 21 Dec 2024 UTC via an FALCON 9 launch vehicle from the Air Force Western Test Range (AFWTR). Payload-class satellites include a variety of spacecraft equipped with specific instruments for various scientific and technological missions. These include communications satellites like Starlink; space stations such as the ISS; scientific satellites like the Hubble; Earth observation satellites from companies like Planet Labs, Umbra, and HawkEye 360; GPS; miniature CubeSats for education and research; and military/defense satellites.

Loading next visibility...
Identifier
62391, 2024-247Q
Orbit
LEO
Country
Flag of CZCZ / CZE
Related business
None
Manufacturer
LASAR
Mission
Operational Amateur Technology
Bus & Motor
CUBESAT 1U, Unknown motor
Mass
1 kg wet, 1 kg dry
Launch date (UTC)
2024-12-21 (10 months ago)
Launch vehicle
FALCON 9
Launch site
Air Force Western Test Range (AFWTR)
Object type
Payload
Rocket body
Debris
Shape & HBR
Box, 0.1 m
Radar Cross Section
0.015 m², Small (<0.1 m²)

Expand to show TLE details & history
Last TLE update: 22 hours ago

TLE from 22 hours ago
0 LASARSAT
1 62391U 24247Q   25300.53676881  .00025074  00000-0  81601-3 0  9991
2 62391  44.9787 115.0300 0005396 188.2131 171.8666 15.31474487 47470
Epoch: 2025-10-27T12:52Z
TLE epoch observation values (Epoch: 2025-10-27T12:52:56.825Z)
Latitude
0.00002°
Longitude
-114.34395°
Altitude
475.067 km
Speed
7.628 km/s
True Right ascension
07h 40m 07s
True Declination
0° 00' 00"
Sunlit
Object was in daylight at epoch
Visualization orbit readout
Latitude
Unknown
Longitude
Unknown
Altitude
Unknown
Speed
Unknown
Apparent Right ascension
Unknown
Apparent Declination
Unknown
Sunlit
N/A
Visualization observer readout
Local Sidereal Time
06:46:03
Azimuth
Unknown
Elevation
Unknown
Doppler factor
Unknown
Orbital elements
Apogee altitude
476.725 km
Perigee altitude
469.331 km
Semi-major axis
6,851.165 km
Eccentricity
0.00054
Inclination
44.9787°
RAAN
115.03°
Arg. of periapsis
188.2131°
True anomaly
171.87534°
Mean anomaly
171.8666°
Eccentric anomaly
171.87097°
Mean motion
3.82734 °/min
Orbital period
94.06 mins
BSTAR
0.00081601
Loading maneuver chart data...
Computing Atmospheric mass density...
Loading historical data...
Loading historical data...
Loading historical data...
Loading historical data...
Loading historical data...
Loading historical data...
Loading historical data...

Documentation

Showing up to 5 results
|